Orbital Elements at Epoch 2459000.5 (2020-May-31.0) TDB
Reference: JPL 16 (heliocentric ecliptic J2000)
Element | Value | Uncertainty (1-sigma) | Units |
e | .158603865823682 | 5.212e-08 | |
a | 2.260911525366224 | 1.2649e-08 | au |
q | 1.902322217157823 | 1.1697e-07 | au |
i | 7.244071430743294 | 5.3696e-06 | deg |
node | 50.07631423764809 | 3.9503e-05 | deg |
peri | 303.3100676479322 | 4.26e-05 | deg |
M | 4.827831419322867 | 1.7826e-05 | deg |
tp | 2458983.847732662347 (2020-May-14.34773266) | 6.1416e-05 | TDB |
period | 1241.72029237838 3.40 | 1.042e-05 2.853e-08 | d yr |
n | .2899203646824996 | 2.433e-09 | deg/d |
Q | 2.619500833574624 | 1.4655e-08 | au |
|
| | Orbit Determination Parameters
Additional Information
|